Location: Elstree
(51.6403°N, 0.2969°W)
Time: 07:54:41
(UTC+00:00)

Envisat - Pass Details

Date: 04 December 2022
Orbit: 763 x 765 km, 98.2° (Epoch: 04 February)

Event Time Altitude Azimuth Distance (km) Brightness Sun altitude
Rises 16:42:00 0° 213° (SSW) 3,222 7.4 -7.2°
Reaches altitude 10° 16:45:09 10° 234° (SW) 2,302 7.1 -7.7°
Maximum altitude 16:48:20 17° 273° (W) 1,891 6.0 -8.1°
Drops below altitude 10° 16:51:32 10° 312° (NW) 2,314 5.8 -8.6°
Sets 16:54:44 0° 333° (NNW) 3,246 6.3 -9.0°
